19:55
Airports
History
Links
Donate
Help keep this website running!
PayPal
Bitcoin
This page is community maintained. The information is intended for PC simulator navigation or reference.
Always use approved charts for navigation.
EGLC
London City
London City (EGLC)
London, United Kingdom
(C)
Lat/Lng:51° 30' 18.83" N / 0° 3' 18.63" E
51.505231 / 0.055175
Elevation:19'ft / 6mMSL
ID / ICAO:EGLC
Runways:1
Longest:09-27
Concrete 1,497m / 4,910ft
Controlled:Yes
METAR19:50 GMT 2017-11-22
Altimeter: 29.26
Visibility: 6.2 statute miles
Wind: 18 knots (from 200°)
Temp: 16°c / 61°f
Humidity: 55.1%

METAR: EGLC 221950Z AUTO 20018G32KT 160V220 9999 NCD 16/07 Q0991

(Powered by phpweather)
Airport Radio Frequencies
City Information : 136.35
Ground: 121.82
Tower: 118.07, 118.4
Approach: 132.7
Nearby VORs <50NM
Nearby NDBs
Runway 09 / 27
Dimensions:1496.7 x 29.9m 4910' x 98'ft
Surface:Concrete
Edge Lights:High intensity
Runway 09 [A]Runway 27 [B]
Heading:092°TH 272°TH
Lat:
Lng:
51° 30' 20.06"N
0° 2' 39.61"E
51° 30' 17.6"N
0° 3' 57.65"E
ALS:MALSMALS
TDZ:Yes, lighted
User Notes and Comments
51° 30' 18.83" N / 0° 3' 18.63" E
Distance To
Airport ID:
Nearby Airports
4 Damyns Hall 8.3 NM
EGML ENE 78°
(C) Stapleford 11.0 NM
EGSG NNE 22°
(C) Biggin Hill 12.2 NM
EGKB ( WX ) S 184°
4 Thurrock 13.6 NM
EGMT E 80°
(U) RAF Kenley 15.3 NM
EGKN SSW 205°
(C) North Weald 15.7 NM
EGSX NNE 15°
(C) Elstree 19.4 NM
EGTR WNW 302°
VFR Chart
Flight Planning at SkyVector.com